Location: Buch
(49.7331°N, 12.1098°E)
Time: 02:43:24
(UTC+00:00)

Cosmos 2369 Rocket - Pass Details

Date: 12 May 2021
Orbit: 827 x 854 km, 71.0° (Epoch: 23 June)

Event Time Altitude Azimuth Distance (km) Brightness Sun altitude
Exits shadow 22:01:48 39° 144° (SE) 1,243 2.6 -20.3°
Maximum altitude 22:03:03 45° 109° (ESE) 1,131 2.6 -20.4°
Drops below altitude 10° 22:08:24 10° 39° (NE) 2,467 5.1 -20.6°
Sets 22:10:57 0° 33° (NNE) 3,410 6.0 -20.7°
